FW5461 Weather Reports


time (UTC)temp
C
wind
direction
speed
KPH
gust
KPH
rain 1hr
cm
rain 24hr
cm
rain mn
cm
humidity
%
barometer
mb
20260510202544 18 236 12.9 25.7 0.00 0.36 0.00 59 1013.7
20260510202042 19 266 14.5 24.1 0.00 0.36 0.00 61 1013.6
20260510201542 20 253 6.4 14.5 0.00 0.36 0.00 65 1013.4
20260510201042 20 242 4.8 11.3 0.00 0.36 0.00 64 1013.5
20260510200541 20 232 4.8 11.3 0.00 0.36 0.00 62 1013.4
20260510200044 20 263 4.8 16.1 0.00 0.36 0.00 61 1013.3
20260510195541 21 246 9.7 16.1 0.00 0.48 0.00 59 1013.4
20260510195040 21 288 4.8 14.5 0.00 0.48 0.00 57 1013.3
20260510194555 21 244 6.4 14.5 0.00 0.48 0.00 57 1013.4
20260510194045 21 259 3.2 11.3 0.00 0.48 0.00 58 1013.4
20260510193542 21 277 3.2 11.3 0.00 0.48 0.00 58 1013.4
20260510193041 21 285 3.2 9.7 0.00 0.48 0.00 58 1013.4
20260510192539 21 244 3.2 14.5 0.00 0.48 0.00 59 1013.5
20260510192039 21 286 3.2 14.5 0.00 0.48 0.00 61 1013.5
20260510191539 20 265 4.8 12.9 0.00 0.48 0.00 61 1013.6
20260510191038 20 333 3.2 12.9 0.00 0.48 0.00 62 1013.5
20260510190538 20 360 3.2 12.9 0.00 0.48 0.00 62 1013.5
20260510190047 20 360 3.2 12.9 0.00 0.48 0.00 62 1013.5
20260510185537 21 360 3.2 9.7 0.00 0.48 0.00 62 1013.6
20260510185037 21 360 0.0 11.3 0.00 0.48 0.00 63 1013.4
20260510184537 21 360 1.6 11.3 0.00 0.48 0.00 63 1013.4
20260510184036 21 155 4.8 11.3 0.00 0.48 0.00 62 1013.4
20260510183539 21 299 3.2 16.1 0.00 0.48 0.00 61 1013.4
20260510183036 21 221 6.4 16.1 0.00 0.48 0.00 61 1013.4
20260510182536 21 195 4.8 16.1 0.00 0.48 0.00 63 1013.4
20260510182034 21 158 4.8 16.1 0.00 0.48 0.00 63 1013.3
20260510181535 21 190 1.6 22.5 0.00 0.48 0.00 64 1013.3
20260510181035 21 161 4.8 22.5 0.00 0.48 0.00 64 1013.4
20260510180533 21 184 6.4 22.5 0.00 0.48 0.00 63 1013.3
20260510180035 21 183 8.0 19.3 0.00 0.48 0.00 64 1013.3
20260510175534 21 174 9.7 17.7 0.00 0.51 0.00 63 1013.3
20260510175034 21 161 6.4 14.5 0.00 0.51 0.00 64 1013.3
20260510174534 21 145 3.2 22.5 0.00 0.51 0.00 63 1013.4
20260510174036 21 132 4.8 22.5 0.00 0.51 0.00 64 1013.5
20260510173535 21 186 4.8 16.1 0.00 0.51 0.00 65 1013.5
20260510173032 20 176 4.8 20.9 0.00 0.51 0.00 66 1013.5
20260510172534 20 360 4.8 20.9 0.00 0.51 0.00 66 1013.6
20260510172033 20 360 11.3 22.5 0.00 0.51 0.00 65 1013.7
20260510171532 20 360 9.7 22.5 0.00 0.51 0.00 66 1013.6
20260510171031 20 360 8.0 20.9 0.00 0.51 0.00 65 1013.7
20260510170531 20 360 9.7 22.5 0.00 0.51 0.00 63 1013.7
20260510170031 21 131 11.3 22.5 0.00 0.51 0.00 62 1013.8
20260510165530 21 156 6.4 19.3 0.00 0.53 0.00 63 1013.7
20260510165028 21 284 8.0 20.9 0.00 0.53 0.00 64 1013.9
20260510164528 21 81 9.7 20.9 0.00 0.53 0.00 64 1013.9
20260510164027 20 142 4.8 20.9 0.00 0.53 0.00 65 1014.0
20260510163528 20 92 11.3 20.9 0.00 0.53 0.00 64 1014.0
20260510163027 20 96 9.7 17.7 0.00 0.53 0.00 64 1014.0
20260510162526 20 186 6.4 17.7 0.00 0.53 0.00 65 1014.1
20260510162026 20 141 9.7 19.3 0.00 0.53 0.00 66 1014.2
20260510161526 20 146 9.7 19.3 0.00 0.53 0.00 67 1014.2
20260510161123 20 186 6.4 17.7 0.00 0.53 0.00 67 1014.3
20260510160523 20 153 6.4 16.1 0.00 0.53 0.00 69 1014.3
20260510160031 19 119 8.0 17.7 0.00 0.53 0.00 69 1014.4
20260510155518 18 145 9.7 17.7 0.00 0.56 0.00 70 1014.4
20260510155017 18 42 6.4 14.5 0.00 0.56 0.00 72 1014.5
20260510154522 18 63 3.2 17.7 0.00 0.56 0.00 72 1014.6
20260510154017 17 134 3.2 19.3 0.00 0.56 0.00 71 1014.6
20260510153516 18 117 8.0 19.3 0.00 0.56 0.00 70 1014.7
20260510153015 18 76 8.0 16.1 0.00 0.56 0.00 72 1014.7
20260510152515 18 195 8.0 17.7 0.00 0.56 0.00 72 1014.6
20260510152014 18 163 3.2 17.7 0.00 0.56 0.00 73 1014.7
20260510151522 17 167 6.4 14.5 0.00 0.56 0.00 75 1014.7
20260510151012 17 205 3.2 19.3 0.00 0.56 0.00 76 1014.7
20260510150509 17 165 11.3 19.3 0.00 0.56 0.00 76 1014.8
20260510150009 16 190 12.9 17.7 0.00 0.56 0.00 77 1014.8
20260510145506 16 111 6.4 17.7 0.00 0.58 0.00 80 1014.7
20260510145005 16 157 4.8 17.7 0.00 0.58 0.00 81 1014.8
20260510144504 15 178 8.0 12.9 0.00 0.58 0.00 82 1014.8
20260510144003 15 117 6.4 14.5 0.00 0.58 0.00 84 1014.8
20260510143502 15 199 6.4 14.5 0.00 0.58 0.00 86 1014.8
20260510143100 15 180 6.4 14.5 0.00 0.58 0.00 87 1015.0
20260510142559 14 189 6.4 16.1 0.00 0.58 0.00 88 1015.0
20260510142057 14 132 6.4 16.1 0.00 0.58 0.00 90 1014.9
20260510141556 13 137 6.4 12.9 0.00 0.58 0.00 91 1015.0
20260510141055 13 196 3.2 12.9 0.00 0.58 0.00 91 1015.0
20260510140552 13 104 3.2 11.3 0.00 0.58 0.00 92 1015.0
20260510140051 12 131 3.2 11.3 0.00 0.58 0.00 92 1015.0
20260510135550 12 104 3.2 11.3 0.00 0.61 0.00 92 1015.0
20260510135050 12 119 3.2 9.7 0.00 0.61 0.00 93 1015.0
20260510134557 12 132 3.2 9.7 0.00 0.61 0.00 93 1014.9
20260510134049 12 155 1.6 11.3 0.00 0.61 0.00 93 1015.0
20260510133548 12 132 3.2 11.3 0.00 0.61 0.00 93 1014.9
20260510133049 12 146 3.2 11.3 0.00 0.61 0.00 94 1015.0
20260510132548 12 144 4.8 11.3 0.00 0.61 0.00 94 1015.0
20260510132048 12 137 3.2 9.7 0.00 0.61 0.00 94 1015.0
20260510131547 12 160 1.6 11.3 0.00 0.61 0.00 94 1015.0
20260510131046 12 153 3.2 11.3 0.00 0.61 0.00 94 1015.0
20260510130546 12 148 3.2 9.7 0.00 0.61 0.00 94 1015.0
20260510130045 12 138 1.6 6.4 0.00 0.61 0.00 94 1014.9
20260510125545 12 144 1.6 6.4 0.00 0.64 0.00 94 1014.9
20260510125045 12 144 3.2 6.4 0.00 0.64 0.00 94 1014.8
20260510124545 12 143 1.6 4.8 0.00 0.64 0.00 95 1014.7
20260510124044 12 142 1.6 4.8 0.00 0.64 0.00 95 1014.7
20260510123543 12 142 0.0 4.8 0.00 0.64 0.00 95 1014.7
20260510123045 12 140 1.6 4.8 0.00 0.64 0.00 95 1014.7
20260510122542 11 140 1.6 4.8 0.00 0.64 0.00 95 1014.7
20260510122041 11 139 1.6 4.8 0.00 0.64 0.00 95 1014.7
20260510121542 11 139 1.6 4.8 0.00 0.64 0.00 95 1014.8
20260510121039 11 174 1.6 6.4 0.00 0.64 0.00 95 1014.8
20260510120538 11 175 1.6 6.4 0.00 0.64 0.00 95 1014.9
20260510120037 11 176 1.6 4.8 0.00 0.64 0.00 95 1014.8
20260510115536 11 177 0.0 4.8 0.00 0.66 0.00 95 1014.8
20260510115035 11 177 1.6 4.8 0.00 0.66 0.00 95 1014.8
20260510114559 11 178 0.0 3.2 0.00 0.66 0.00 95 1014.7
20260510114034 11 178 1.6 3.2 0.00 0.66 0.00 95 1014.7
20260510113531 11 178 0.0 3.2 0.00 0.66 0.00 95 1014.7
20260510113042 10 360 0.0 3.2 0.00 0.66 0.00 95 1014.6
20260510112529 10 194 1.6 3.2 0.00 0.66 0.00 94 1014.8
20260510112028 10 194 0.0 4.8 0.00 0.66 0.00 94 1014.8
20260510111532 10 195 1.6 4.8 0.00 0.66 0.00 94 1014.7
20260510111026 10 194 1.6 4.8 0.00 0.66 0.00 94 1014.6
20260510110528 10 194 0.0 4.8 0.00 0.66 0.00 94 1014.6
20260510110033 10 196 0.0 4.8 0.00 0.66 0.00 94 1014.5
20260510105522 10 193 1.6 4.8 0.00 0.76 0.00 94 1014.4
20260510105021 10 194 0.0 4.8 0.00 0.76 0.00 94 1014.5
20260510104519 10 194 0.0 8.0 0.00 0.76 0.00 94 1014.4
20260510104018 10 204 3.2 8.0 0.00 0.76 0.00 94 1014.4
20260510103516 10 198 1.6 4.8 0.00 0.76 0.00 94 1014.3
20260510103016 10 198 1.6 4.8 0.00 0.76 0.00 94 1014.3
20260510102515 10 198 0.0 3.2 0.00 0.76 0.00 94 1014.3
20260510102016 10 200 0.0 4.8 0.00 0.76 0.00 94 1014.2
20260510101512 10 198 0.0 4.8 0.00 0.76 0.00 94 1014.1
20260510101011 10 194 1.6 4.8 0.00 0.76 0.00 94 1014.2
20260510100511 10 188 0.0 3.2 0.00 0.76 0.00 94 1014.2
20260510100010 10 190 0.0 4.8 0.00 0.76 0.00 94 1013.9
20260510095509 10 192 1.6 4.8 0.00 0.89 0.00 94 1013.9
20260510095008 10 178 1.6 6.4 0.00 0.89 0.00 94 1013.6
20260510094508 10 173 1.6 6.4 0.00 0.89 0.00 94 1013.3
20260510094007 10 174 1.6 8.0 0.00 0.89 0.00 94 1013.3
20260510093512 10 182 1.6 8.0 0.00 0.89 0.00 94 1013.5
20260510093007 10 185 3.2 8.0 0.00 0.89 0.00 94 1013.5
20260510092507 10 183 3.2 6.4 0.00 0.89 0.00 94 1013.4
20260510092009 10 205 0.0 4.8 0.00 0.89 0.00 94 1013.7
20260510091506 10 206 0.0 6.4 0.00 0.89 0.00 94 1013.7
20260510091006 10 205 1.6 6.4 0.00 0.89 0.00 93 1013.9
20260510090505 10 205 1.6 6.4 0.00 0.89 0.00 94 1013.7
20260510090006 10 206 0.0 1.6 0.00 0.89 0.00 94 1013.5
20260510085505 10 205 0.0 0.0 0.00 0.91 0.00 94 1013.6
20260510085008 10 205 0.0 0.0 0.00 0.91 0.00 94 1013.8
20260510084506 10 205 0.0 0.0 0.00 0.91 0.00 94 1013.8
20260510084004 10 205 0.0 0.0 0.00 0.91 0.00 94 1013.9
20260510083504 10 205 0.0 0.0 0.00 0.91 0.00 94 1014.1
20260510083013 10 206 0.0 0.0 0.00 0.91 0.00 94 1014.0
20260510082606 10 205 0.0 0.0 0.00 0.91 0.00 94 1014.1
20260510082003 10 360 0.0 0.0 0.00 0.91 0.00 93 1013.9
20260510081502 10 205 0.0 3.2 0.00 0.91 0.00 93 1014.0
20260510081002 10 206 0.0 3.2 0.00 0.91 0.00 93 1014.1
20260510080601 10 206 0.0 3.2 0.00 0.91 0.00 93 1014.0
20260510080001 10 205 0.0 1.6 0.00 0.91 0.00 93 1014.1
20260510075501 9 205 0.0 1.6 0.00 0.91 0.00 93 1014.1
20260510075102 10 205 0.0 1.6 0.00 0.91 0.00 93 1014.1
20260510074607 10 205 0.0 1.6 0.00 0.91 0.00 93 1014.1
20260510074100 10 206 0.0 1.6 0.00 0.91 0.00 93 1014.1
20260510073559 10 205 0.0 0.0 0.00 0.91 0.00 93 1013.9
20260510073100 9 205 0.0 0.0 0.00 0.91 0.00 93 1013.7
20260510072559 9 205 0.0 3.2 0.00 0.91 0.00 93 1013.9
20260510072100 9 205 0.0 3.2 0.00 0.91 0.00 93 1013.8
20260510071603 10 204 1.6 3.2 0.00 0.91 0.00 93 1013.7
20260510071058 9 204 0.0 3.2 0.00 0.91 0.00 93 1013.7
20260510070557 9 205 0.0 3.2 0.00 0.91 0.00 93 1013.6
20260510070109 9 205 0.0 0.0 0.00 0.91 0.00 93 1013.5
20260510065557 9 204 0.0 4.8 0.00 0.91 0.00 93 1013.5
20260510065058 9 204 0.0 4.8 0.00 0.91 0.00 93 1013.7
20260510064602 9 205 1.6 4.8 0.00 0.91 0.00 93 1013.7
20260510064057 9 205 1.6 3.2 0.00 0.91 0.00 93 1013.8
20260510063557 9 205 0.0 1.6 0.00 0.91 0.00 93 1013.7
20260510063101 9 205 0.0 3.2 0.00 0.91 0.00 93 1013.7
20260510062556 9 205 1.6 3.2 0.00 0.91 0.00 93 1013.7
20260510062056 9 204 0.0 0.0 0.00 0.91 0.00 93 1013.6
20260510061557 9 204 0.0 3.2 0.00 0.91 0.00 93 1013.6
20260510061056 9 205 0.0 4.8 0.00 0.91 0.00 93 1013.5
20260510060556 9 205 1.6 4.8 0.00 0.91 0.00 93 1013.4
20260510060059 8 204 0.0 3.2 0.00 0.91 0.00 93 1013.4
20260510055554 8 204 0.0 0.0 0.00 0.91 0.00 92 1013.5
20260510055054 8 203 0.0 0.0 0.00 0.91 0.00 92 1013.4
20260510054601 8 202 0.0 0.0 0.00 0.91 0.00 92 1013.5
20260510054054 8 202 0.0 0.0 0.00 0.91 0.00 92 1013.4
20260510053555 8 205 0.0 0.0 0.00 0.91 0.00 92 1013.4
20260510053052 8 205 0.0 0.0 0.00 0.91 0.00 92 1013.4
20260510052552 8 205 0.0 0.0 0.00 0.91 0.00 92 1013.6
20260510052052 9 204 0.0 0.0 0.00 0.91 0.00 92 1013.7
20260510051552 9 204 0.0 0.0 0.00 0.91 0.00 92 1013.7
20260510051054 9 204 0.0 0.0 0.00 0.91 0.00 92 1013.8
20260510050550 9 205 0.0 0.0 0.00 0.91 0.00 92 1013.9
20260510050054 9 203 0.0 0.0 0.00 0.91 0.00 92 1013.6
20260510045552 9 203 0.0 0.0 0.00 0.91 0.00 92 1013.6
20260510045050 9 204 0.0 0.0 0.00 0.91 0.00 92 1013.6
20260510044553 10 204 0.0 0.0 0.00 0.91 0.00 92 1013.6
20260510044047 10 203 0.0 0.0 0.00 0.91 0.00 92 1013.4
20260510043546 10 205 0.0 0.0 0.00 0.91 0.00 92 1013.4
20260510043046 10 202 0.0 0.0 0.00 0.91 0.00 92 1013.5
20260510042544 10 202 0.0 1.6 0.00 0.91 0.00 92 1013.5
20260510042044 10 203 0.0 3.2 0.00 0.91 0.00 92 1013.7
20260510041549 10 204 0.0 3.2 0.00 0.91 0.00 92 1013.8
20260510041042 10 202 0.0 3.2 0.00 0.91 0.00 92 1013.7
20260510040542 10 202 0.0 3.2 0.00 0.91 0.00 92 1013.8
20260510040039 10 202 0.0 6.4 0.00 0.91 0.00 92 1013.7
20260510035538 10 202 0.0 6.4 0.00 0.91 0.91 92 1013.7
20260510035041 10 200 1.6 4.8 0.00 0.91 0.91 92 1013.7
20260510034539 10 195 0.0 3.2 0.00 0.91 0.91 92 1013.6
20260510034038 10 194 0.0 3.2 0.00 0.91 0.91 92 1013.4
20260510033537 10 194 0.0 3.2 0.00 0.91 0.91 92 1013.6
20260510033048 10 196 0.0 3.2 0.00 0.91 0.91 92 1013.6
20260510032540 10 199 0.0 1.6 0.00 0.91 0.91 92 1013.8
20260510032038 10 198 0.0 1.6 0.00 0.91 0.91 92 1013.9
20260510031539 10 197 0.0 1.6 0.00 0.91 0.91 92 1014.0
20260510031037 10 197 0.0 1.6 0.00 0.91 0.91 92 1013.9
20260510030536 10 198 0.0 0.0 0.00 0.91 0.91 92 1013.9
20260510030036 10 198 0.0 0.0 0.00 0.91 0.91 92 1013.8
20260510025536 10 199 0.0 0.0 0.00 0.91 0.91 92 1013.7
20260510025037 10 198 0.0 1.6 0.00 0.91 0.91 92 1013.6
20260510024539 10 198 0.0 1.6 0.00 0.91 0.91 92 1013.5
20260510024035 10 198 0.0 0.0 0.00 0.91 0.91 92 1013.6
20260510023535 10 198 0.0 0.0 0.00 0.91 0.91 92 1013.8
20260510023036 10 199 0.0 0.0 0.00 0.91 0.91 92 1013.7
20260510022536 10 199 0.0 1.6 0.00 0.91 0.91 92 1013.7
20260510022036 10 198 0.0 1.6 0.00 0.91 0.91 92 1013.6
20260510021539 10 198 0.0 1.6 0.00 0.91 0.91 92 1013.5
20260510021035 10 199 0.0 1.6 0.00 0.91 0.91 92 1013.4
20260510020534 10 198 0.0 0.0 0.00 0.91 0.91 92 1013.7
20260510020036 10 200 0.0 0.0 0.00 0.91 0.91 92 1013.9
20260510015534 10 199 0.0 0.0 0.00 0.91 0.91 92 1014.2
20260510015036 10 198 0.0 1.6 0.00 0.91 0.91 92 1014.1
20260510014535 10 198 0.0 1.6 0.00 0.91 0.91 92 1014.2
20260510014034 10 199 0.0 1.6 0.00 0.91 0.91 92 1014.3
20260510013534 10 200 0.0 1.6 0.00 0.91 0.91 92 1014.3
20260510013039 10 198 0.0 0.0 0.00 0.91 0.91 92 1014.3
20260510012535 10 198 0.0 4.8 0.00 0.91 0.91 92 1014.3
20260510012033 10 198 1.6 4.8 0.00 0.91 0.91 92 1014.2
20260510011534 10 195 1.6 4.8 0.00 0.91 0.91 91 1014.2
20260510011031 10 196 0.0 3.2 0.00 0.91 0.91 91 1014.0
20260510010528 10 194 0.0 3.2 0.00 0.91 0.91 91 1013.8
20260510010027 10 194 0.0 0.0 0.00 0.91 0.91 91 1013.7
20260510005526 10 195 0.0 0.0 0.00 0.91 0.91 91 1013.6
20260510005025 10 195 0.0 0.0 0.00 0.91 0.91 91 1013.6
20260510004523 10 195 0.0 0.0 0.00 0.91 0.91 91 1013.5
20260510004022 10 195 0.0 0.0 0.00 0.91 0.91 91 1013.5
20260510003523 10 194 0.0 0.0 0.00 0.91 0.91 91 1013.6
20260510003021 10 194 0.0 1.6 0.00 0.91 0.91 91 1013.5
20260510002519 10 193 0.0 3.2 0.00 0.91 0.91 91 1013.4
20260510002018 10 192 0.0 3.2 0.00 0.91 0.91 91 1013.3
20260510001523 10 191 1.6 4.8 0.00 0.91 0.91 91 1013.2
20260510001018 10 193 1.6 4.8 0.00 0.91 0.91 91 1013.2
20260510000514 10 193 0.0 3.2 0.00 0.91 0.91 91 1013.2
20260510000113 10 193 0.0 1.6 0.00 0.91 0.91 91 1013.3
20260509235512 10 194 0.0 1.6 0.00 0.91 0.91 91 1013.3
20260509235014 10 193 0.0 3.2 0.00 0.91 0.91 91 1013.2
20260509234514 10 194 0.0 3.2 0.00 0.91 0.91 91 1013.2
20260509234013 10 193 0.0 3.2 0.00 0.91 0.91 91 1013.3
20260509233511 10 194 0.0 3.2 0.00 0.91 0.91 91 1013.3
20260509233011 10 194 0.0 6.4 0.00 0.91 0.91 91 1013.3
20260509232512 10 193 1.6 6.4 0.00 0.91 0.91 91 1013.4
20260509232012 10 183 0.0 4.8 0.03 0.91 0.91 91 1013.4
20260509231511 10 184 1.6 4.8 0.03 0.91 0.91 91 1013.3
20260509231012 10 176 0.0 8.0 0.05 0.91 0.91 91 1013.1
20260509230508 10 175 3.2 8.0 0.05 0.91 0.91 91 1013.1
20260509230008 10 205 0.0 3.2 0.08 0.91 0.91 90 1013.2
20260509225506 10 205 0.0 3.2 0.10 0.91 0.91 90 1013.2
20260509225005 10 205 0.0 3.2 0.13 0.91 0.91 90 1013.3
20260509224503 10 203 0.0 1.6 0.15 0.91 0.91 90 1013.3
20260509224002 10 203 0.0 3.2 0.15 0.91 0.91 90 1013.3
20260509223601 10 203 0.0 3.2 0.18 0.91 0.91 90 1013.1
20260509223101 10 203 0.0 3.2 0.18 0.91 0.91 90 1013.1
20260509222559 9 203 0.0 3.2 0.20 0.91 0.91 90 1013.3
20260509222058 9 204 0.0 0.0 0.18 0.89 0.89 90 1013.4
20260509221558 9 203 0.0 1.6 0.20 0.89 0.89 90 1013.4
20260509221058 9 203 0.0 3.2 0.18 0.86 0.86 90 1013.3
20260509220556 9 204 0.0 3.2 0.18 0.86 0.86 90 1013.3
20260509215556 9 202 1.6 6.4 0.15 0.81 0.81 90 1013.3
20260509215056 9 99 0.0 3.2 0.13 0.79 0.79 90 1013.1
20260509214556 9 99 0.0 3.2 0.10 0.76 0.76 90 1013.1
20260509214054 9 98 0.0 4.8 0.13 0.76 0.76 90 1013.3
20260509213554 9 96 0.0 4.8 0.10 0.71 0.71 90 1013.4
20260509213055 9 93 0.0 3.2 0.13 0.71 0.71 90 1013.6
20260509212552 9 92 0.0 3.2 0.10 0.71 0.71 90 1013.5
20260509212051 9 94 0.0 4.8 0.13 0.71 0.71 90 1013.6
20260509211554 9 92 0.0 4.8 0.10 0.69 0.69 89 1013.7
20260509211051 9 94 0.0 4.8 0.13 0.69 0.69 89 1013.7
20260509210551 9 94 0.0 4.8 0.13 0.69 0.69 89 1013.9
20260509210051 9 91 0.0 4.8 0.13 0.69 0.69 89 1013.9
20260509205549 9 93 0.0 3.2 0.10 0.66 0.66 89 1014.1
20260509205048 9 92 0.0 4.8 0.13 0.66 0.66 89 1014.0
20260509204557 9 92 1.6 4.8 0.15 0.66 0.66 89 1014.0
20260509204048 9 93 0.0 3.2 0.15 0.64 0.64 89 1014.1
20260509203548 9 91 0.0 3.2 0.18 0.64 0.64 89 1014.1
20260509203047 9 92 0.0 3.2 0.15 0.61 0.61 89 1014.1